Location: Pandora
(40.9481°N, 83.9611°W)
Time: 13:17:45
(UTC-04:00)

Nauka - Pass Details

Date: 22 September 2021
Orbit: 417 x 423 km, 51.6° (Epoch: 26 October)

Event Time Altitude Azimuth Distance (km) Brightness Sun altitude
Rises 21:04:26 0° 286° (WNW) 2,361 ? -18.0°
Reaches altitude 10° 21:07:10 10° 310° (NW) 1,500 ? -18.5°
Maximum altitude 21:09:16 15° 349° (N) 1,213 ? -18.9°
Enters shadow 21:11:05 11° 23° (NNE) 1,433 ? -19.2°
